This demonstration page uses our WeatherBlox Daily Observations layout. Learn more.

Left ArrowRight Arrow

Hourly Observations for August 11, 2022

Temp ( °F °C ) Dew Point ( °F °C ) Humidity (%) Winds ( mph kmh ) Pressure ( in mb ) Visibility ( mi km ) Precip ( " mm )
12:15 am 00:15 Clear 63 17 63 17 100 100 Calm 30.12 1020 10 16 0.00 0.00
12:35 am 00:35 Clear 61 16 61 16 100 100 Calm 30.12 1020 10 16 0.00 0.00
12:55 am 00:55 Clear 61 16 61 16 100 100 Calm 30.12 1020 10 16 0.00 0.00
1:15 am 01:15 Clear 61 16 61 16 100 100 Calm 30.13 1020 10 16 0.00 0.00
1:35 am 01:35 Clear 61 16 61 16 100 100 Calm 30.12 1020 10 16 0.00 0.00
1:55 am 01:55 Clear 59 15 59 15 100 100 Calm 30.12 1020 10 16 0.00 0.00
2:15 am 02:15 Clear 59 15 59 15 100 100 Calm 30.12 1020 10 16 0.00 0.00
2:35 am 02:35 Clear 59 15 59 15 100 100 Calm 30.12 1020 10 16 0.00 0.00
2:55 am 02:55 Clear 59 15 59 15 100 100 Calm 30.12 1020 10 16 0.00 0.00
3:15 am 03:15 Clear 59 15 59 15 100 100 Calm 30.12 1020 5 8 0.00 0.00
3:35 am 03:35 Mostly Clear 59 15 59 15 100 100 Calm 30.12 1020 1 2 0.00 0.00
4:15 am 04:15 Clear 59 15 59 15 100 100 Calm 30.12 1020 7 11 0.00 0.00
4:35 am 04:35 Clear 57 14 57 14 100 100 Calm 30.12 1020 10 16 0.00 0.00
4:55 am 04:55 Clear 59 15 59 15 100 100 Calm 30.12 1020 7 11 0.00 0.00
5:15 am 05:15 Clear 59 15 59 15 100 100 Calm 30.12 1020 7 11 0.00 0.00
5:35 am 05:35 Clear 59 15 59 15 100 100 Calm 30.12 1020 10 16 0.00 0.00
5:55 am 05:55 Clear 57 14 57 14 100 100 Calm 30.12 1020 3 4 0.00 0.00
6:15 am 06:15 Clear 57 14 57 14 100 100 Calm 30.12 1020 5 8 0.00 0.00
6:35 am 06:35 Clear 57 14 57 14 100 100 Calm 30.12 1020 5 8 0.00 0.00
6:55 am 06:55 Sunny 57 14 57 14 100 100 Calm 30.13 1020 3 4 0.00 0.00
7:15 am 07:15 Sunny 59 15 59 15 100 100 Calm 30.12 1020 5 8 0.00 0.00
7:35 am 07:35 Sunny 59 15 59 15 100 100 Calm 30.13 1020 3 5 0.00 0.00
7:55 am 07:55 Sunny 61 16 61 16 100 100 Calm 30.13 1020 10 16 0.00 0.00
8:15 am 08:15 Sunny 63 17 63 17 100 100 Calm 30.13 1020 10 16 0.00 0.00
8:35 am 08:35 Sunny 66 19 66 19 100 100 Calm 30.12 1020 10 16 0.00 0.00
8:55 am 08:55 Sunny 68 20 66 19 94 94 W 3 6 30.12 1020 10 16 0.00 0.00
9:15 am 09:15 Sunny 70 21 66 19 88 88 W 3 6 30.11 1020 10 16 0.00 0.00
9:35 am 09:35 Sunny 72 22 66 19 83 83 W 3 6 30.11 1020 10 16 0.00 0.00
9:55 am 09:55 Sunny 72 22 66 19 83 83 Calm 30.11 1020 10 16 0.00 0.00
10:15 am 10:15 Sunny 73 23 68 20 83 83 Calm 30.11 1020 10 16 0.00 0.00
10:35 am 10:35 Sunny 75 24 68 20 78 78 Calm 30.10 1019 10 16 0.00 0.00
10:55 am 10:55 Sunny 77 25 66 19 69 69 Calm 30.10 1019 10 16 0.00 0.00
11:15 am 11:15 Sunny 77 25 66 19 69 69 NW 5 7 30.10 1019 10 16 0.00 0.00
11:35 am 11:35 Sunny 79 26 66 19 65 65 Calm 30.10 1019 10 16 0.00 0.00
11:55 am 11:55 Partly Cloudy 79 26 66 19 65 65 Calm 30.10 1019 10 16 0.00 0.00
12:15 pm 12:15 Mostly Cloudy 79 26 66 19 65 65 N 3 6 30.10 1019 10 16 0.00 0.00
12:35 pm 12:35 Partly Cloudy 82 28 66 19 58 58 NW 5 7 30.08 1019 10 16 0.00 0.00
12:55 pm 12:55 Mostly Cloudy 81 27 66 19 62 62 Calm 30.08 1019 10 16 0.00 0.00
1:15 pm 13:15 Cloudy 82 28 66 19 58 58 NW 6 9 30.07 1018 10 16 0.00 0.00
1:35 pm 13:35 Cloudy 81 27 66 19 62 62 NW 5 7 30.08 1019 10 16 0.00 0.00
1:55 pm 13:55 Mostly Cloudy 82 28 66 19 58 58 W 5 7 30.07 1018 10 16 0.00 0.00
2:15 pm 14:15 Partly Cloudy 82 28 66 19 58 58 NW 3 6 30.06 1018 10 16 0.00 0.00
2:35 pm 14:35 Mostly Cloudy 75 24 66 19 74 74 NE 12 19 30.09 1019 10 16 0.00 0.00
2:55 pm 14:55 Cloudy 73 23 66 19 78 78 NNW 7 11 30.10 1019 7 11 0.00 0.00
3:15 pm 15:15 Cloudy 72 22 72 22 100 100 Calm 30.09 1019 4 6 0.00 0.00
3:35 pm 15:35 Mostly Cloudy 72 22 72 22 100 100 NNE 6 9 30.08 1019 10 16 0.00 0.00
3:55 pm 15:55 Partly Cloudy 77 25 73 23 89 89 N 5 7 30.06 1018 10 16 0.00 0.00
4:15 pm 16:15 Partly Cloudy 79 26 72 22 79 79 NNE 9 15 30.05 1018 10 16 0.00 0.00
4:35 pm 16:35 Partly Cloudy 77 25 72 22 83 83 N 7 11 30.05 1018 10 16 0.00 0.00
4:55 pm 16:55 Partly Cloudy 77 25 72 22 83 83 N 7 11 30.05 1018 10 16 0.00 0.00
5:15 pm 17:15 Partly Cloudy 81 27 72 22 74 74 N 13 20 30.04 1017 10 16 0.00 0.00
5:35 pm 17:35 Sunny 81 27 68 20 66 66 NNW 12 19 30.04 1017 10 16 0.00 0.00
5:55 pm 17:55 Partly Cloudy 79 26 66 19 65 65 N 12 19 30.05 1018 10 16 0.00 0.00
6:15 pm 18:15 Mostly Cloudy 79 26 66 19 65 65 N 14 22 30.05 1018 10 16 0.00 0.00
6:35 pm 18:35 Mostly Cloudy 77 25 66 19 69 69 N 10 17 30.06 1018 10 16 0.00 0.00
6:55 pm 18:55 Mostly Cloudy 77 25 66 19 69 69 N 13 20 30.06 1018 10 16 0.00 0.00
7:15 pm 19:15 Partly Cloudy 77 25 64 18 65 65 NNE 12 19 30.05 1018 10 16 0.00 0.00
7:35 pm 19:35 Sunny 75 24 66 19 74 74 NNE 8 13 30.05 1018 10 16 0.00 0.00
7:55 pm 19:55 Sunny 75 24 64 18 69 69 NNE 8 13 30.05 1018 10 16 0.00 0.00
8:15 pm 20:15 Sunny 72 22 64 18 78 78 N 5 7 30.07 1018 10 16 0.00 0.00
8:35 pm 20:35 Partly Cloudy 70 21 64 18 83 83 NNE 5 7 30.10 1019 10 16 0.00 0.00
8:55 pm 20:55 Partly Cloudy 68 20 66 19 94 94 N 5 7 30.10 1019 10 16 0.00 0.00
9:15 pm 21:15 Clear 68 20 64 18 88 88 N 5 7 30.10 1019 10 16 0.00 0.00
9:35 pm 21:35 Clear 66 19 64 18 94 94 N 5 7 30.11 1020 10 16 0.00 0.00
9:55 pm 21:55 Partly Cloudy 66 19 64 18 94 94 N 3 6 30.12 1020 10 16 0.00 0.00
10:15 pm 22:15 Partly Cloudy 64 18 64 18 100 100 N 5 7 30.12 1020 10 16 0.00 0.00
10:35 pm 22:35 Clear 64 18 63 17 94 94 N 3 6 30.12 1020 10 16 0.00 0.00
10:55 pm 22:55 Clear 63 17 63 17 100 100 N 5 7 30.14 1021 10 16 0.00 0.00
11:15 pm 23:15 Clear 63 17 63 17 100 100 N 5 7 30.14 1021 10 16 0.00 0.00
11:35 pm 23:35 Clear 63 17 63 17 100 100 N 5 7 30.15 1021 10 16 0.00 0.00
11:55 pm 23:55 Clear 59 15 59 15 100 100 N 3 6 30.15 1021 10 16 0.00 0.00

Powered by AerisWeather